VE1DX Weather Reports


Display with metric or nautical units.
time (UTC)temp
F
wind
direction
speed
MPH
gust
MPH
rain 1hr
in
rain 24hr
in
rain mn
in
humidity
%
barometer
mb
20260831080016 61 0.0 1.0 0.00 0.05 0.05 100 1011.1
20260831075516 61 0.0 0.0 0.00 0.05 0.05 100 1011.2
20260831075016 61 0.0 0.0 0.00 0.05 0.05 100 1011.3
20260831074516 61 0.0 0.0 0.00 0.05 0.05 100 1011.4
20260831074016 61 0.0 2.0 0.00 0.05 0.05 100 1011.5
20260831073516 61 0.0 2.0 0.00 0.05 0.05 100 1011.5
20260831073016 61 0.0 1.0 0.00 0.05 0.05 100 1011.3
20260831072516 61 0.0 0.0 0.00 0.05 0.05 100 1011.2
20260831072016 61 0.0 0.0 0.00 0.05 0.05 100 1011.0
20260831071516 61 0.0 1.0 0.00 0.05 0.05 100 1010.9
20260831071016 61 0.0 0.0 0.00 0.05 0.05 100 1011.1
20260831070516 61 0.0 0.0 0.00 0.05 0.05 100 1011.1
20260831070016 61 0.0 0.0 0.00 0.05 0.05 100 1011.2
20260831065516 61 0.0 0.0 0.00 0.05 0.05 100 1010.9
20260831065016 61 0.0 1.0 0.01 0.05 0.05 100 1011.0
20260831064516 62 0.0 1.0 0.01 0.05 0.05 100 1011.0
20260831064016 62 0.0 1.0 0.02 0.05 0.05 100 1011.0
20260831063516 62 0.0 2.0 0.02 0.05 0.05 100 1011.1
20260831063016 62 0.0 1.0 0.02 0.05 0.05 100 1011.1
20260831062516 62 0.0 3.0 0.02 0.05 0.05 100 1011.0
20260831062016 62 0.0 0.0 0.02 0.05 0.05 100 1011.0
20260831061516 62 0.0 0.0 0.02 0.05 0.05 100 1010.7
20260831061016 62 0.0 0.0 0.02 0.05 0.05 99 1010.7
20260831060516 62 0.0 0.0 0.03 0.05 0.05 99 1010.7
20260831060016 62 0.0 0.0 0.03 0.05 0.05 99 1010.6
20260831055516 62 0.0 0.0 0.03 0.05 0.05 99 1010.7
20260831055016 62 0.0 0.0 0.02 0.04 0.04 99 1010.5
20260831054516 63 0.0 0.0 0.02 0.04 0.04 99 1010.5
20260831054016 63 0.0 0.0 0.02 0.03 0.03 99 1010.7
20260831053516 63 0.0 1.0 0.02 0.02 0.02 98 1010.8
20260831053016 63 338 1.0 1.0 0.02 0.02 0.02 98 1011.0
20260831052516 63 0.0 3.0 0.02 0.02 0.02 98 1011.0
20260831052016 63 0.0 0.0 0.02 0.02 0.02 98 1011.2
20260831051516 63 0.0 1.0 0.02 0.02 0.02 98 1011.2
20260831051016 64 0.0 1.0 0.02 0.02 0.02 98 1011.3
20260831050516 64 0.0 1.0 0.02 0.02 0.02 98 1011.4
20260831050016 64 0.0 1.0 0.02 0.02 0.02 98 1011.4
20260831045516 64 0.0 1.0 0.02 0.02 0.02 98 1011.4
20260831045016 64 0.0 1.0 0.02 0.02 0.02 98 1011.4
20260831044516 64 0.0 0.0 0.02 0.02 0.02 98 1011.5
20260831044016 65 0.0 0.0 0.02 0.02 0.02 98 1011.5
20260831043516 65 0.0 0.0 0.01 0.01 0.01 97 1011.2
20260831043016 65 0.0 1.0 0.01 0.01 0.01 98 1011.4
20260831042516 65 0.0 1.0 0.01 0.01 0.01 97 1011.4
20260831042016 65 0.0 2.0 0.01 0.01 0.01 96 1011.3
20260831041516 65 0.0 1.0 0.01 0.01 0.01 96 1011.5
20260831041016 65 0.0 2.0 0.01 0.01 0.01 95 1011.4
20260831040516 65 0.0 3.0 0.00 0.00 0.00 95 1011.5
20260831040016 65 293 1.0 7.0 0.00 0.00 0.00 95 1011.6
20260831035516 65 225 1.0 7.0 0.00 0.00 0.00 95 1011.5
20260831035016 65 293 1.0 4.0 0.00 0.00 0.00 94 1011.3
20260831034516 65 225 1.0 4.0 0.00 0.00 0.00 94 1011.4
20260831034016 65 203 1.0 4.0 0.00 0.00 0.00 94 1011.4
20260831033516 65 225 1.0 6.0 0.00 0.00 0.00 94 1011.3
20260831033016 65 0.0 2.0 0.00 0.00 0.00 95 1011.3
20260831032516 65 0.0 4.0 0.00 0.00 0.00 95 1011.2
20260831032016 65 0.0 1.0 0.00 0.00 0.00 95 1011.3
20260831031516 65 0.0 2.0 0.00 0.00 0.00 95 1011.3
20260831031016 65 0.0 2.0 0.00 0.00 0.00 95 1011.4
20260831030516 65 0.0 1.0 0.00 0.00 0.00 95 1011.3
20260831030016 65 0.0 2.0 0.00 0.00 0.00 95 1011.4
20260831025517 65 0.0 3.0 0.00 0.00 0.00 95 1011.3
20260831025016 65 225 1.0 4.0 0.00 0.00 0.00 95 1011.3
20260831024517 65 225 1.0 7.0 0.00 0.00 0.00 96 1011.5
20260831024016 65 0.0 4.0 0.00 0.00 0.00 96 1011.6
20260831023516 65 0.0 3.0 0.00 0.00 0.00 96 1011.6
20260831023016 65 0.0 4.0 0.00 0.00 0.00 95 1011.5
20260831022517 65 0.0 4.0 0.00 0.00 0.00 95 1011.6
20260831022016 65 225 1.0 6.0 0.00 0.00 0.00 95 1011.7
20260831021517 65 203 1.0 4.0 0.00 0.00 0.00 95 1011.8
20260831021017 65 0.0 3.0 0.00 0.00 0.00 95 1011.8
20260831020516 65 0.0 2.0 0.00 0.00 0.00 95 1011.9
20260831020017 65 0.0 3.0 0.00 0.00 0.00 96 1012.1
20260831015516 65 0.0 2.0 0.00 0.00 0.00 96 1012.0
20260831015016 65 0.0 1.0 0.00 0.00 0.00 96 1012.0
20260831014516 65 0.0 3.0 0.00 0.00 0.00 96 1012.2
20260831014016 65 0.0 1.0 0.00 0.00 0.00 96 1012.1
20260831013516 65 0.0 1.0 0.00 0.00 0.00 96 1012.2
20260831013017 65 0.0 1.0 0.00 0.00 0.00 96 1012.3
20260831012517 65 0.0 1.0 0.00 0.00 0.00 95 1012.3
20260831012016 66 0.0 2.0 0.00 0.00 0.00 95 1012.5
20260831011516 66 0.0 0.0 0.00 0.00 0.00 95 1012.5
20260831011016 66 0.0 1.0 0.00 0.00 0.00 94 1012.3
20260831010517 66 0.0 1.0 0.00 0.00 0.00 94 1012.3
20260831010016 66 0.0 0.0 0.00 0.00 0.00 93 1012.3
20260831005516 66 0.0 1.0 0.00 0.00 0.00 93 1012.5
20260831005016 67 0.0 0.0 0.00 0.00 0.00 92 1012.4
20260831004516 67 0.0 0.0 0.00 0.00 0.00 91 1012.3
20260831004016 67 0.0 1.0 0.00 0.00 0.00 90 1012.2
20260831003516 67 0.0 6.0 0.00 0.00 0.00 89 1012.4
20260831003016 68 0.0 2.0 0.00 0.00 0.00 89 1012.4
20260831002517 68 0.0 4.0 0.00 0.00 0.00 88 1012.5
20260831002017 68 248 2.0 8.0 0.00 0.00 0.00 87 1012.6
20260831001517 68 0.0 3.0 0.00 0.00 0.00 87 1012.6
20260831001016 69 0.0 3.0 0.00 0.00 0.00 86 1012.6
20260831000516 69 135 1.0 5.0 0.00 0.00 0.00 86 1012.7
20260831000016 69 225 1.0 3.0 0.00 0.00 0.00 86 1012.7
20260830235516 69 0.0 5.0 0.00 0.00 0.00 86 1012.7
20260830235016 69 225 1.0 3.0 0.00 0.00 0.00 86 1012.8
20260830234516 69 113 1.0 4.0 0.00 0.00 0.00 85 1012.9
20260830234016 69 225 1.0 5.0 0.00 0.00 0.00 85 1012.9
20260830233516 69 113 1.0 6.0 0.00 0.00 0.00 85 1012.8
20260830233016 69 113 1.0 8.0 0.00 0.00 0.00 84 1012.9
20260830232517 69 90 1.0 6.0 0.00 0.00 0.00 84 1012.9
20260830232017 69 135 1.0 6.0 0.00 0.00 0.00 85 1012.9
20260830231516 69 180 1.0 3.0 0.00 0.00 0.00 85 1012.9
20260830231016 69 113 1.0 4.0 0.00 0.00 0.00 85 1012.8
20260830230516 69 0.0 4.0 0.00 0.00 0.00 85 1012.9
20260830230016 69 0.0 3.0 0.00 0.00 0.00 84 1012.9
20260830225517 69 0.0 2.0 0.00 0.00 0.00 84 1012.9
20260830225016 69 0.0 1.0 0.00 0.00 0.00 84 1012.9
20260830224516 70 113 1.0 4.0 0.00 0.00 0.00 84 1013.0
20260830224016 70 135 1.0 3.0 0.00 0.00 0.00 85 1013.0
20260830223516 70 0.0 3.0 0.00 0.00 0.00 85 1012.9
20260830223016 70 225 1.0 4.0 0.00 0.00 0.00 84 1012.9
20260830222516 70 0.0 4.0 0.00 0.00 0.00 84 1012.9
20260830222016 70 0.0 2.0 0.00 0.00 0.00 84 1013.0
20260830221516 70 0.0 2.0 0.00 0.00 0.00 83 1013.0
20260830221017 70 0.0 1.0 0.00 0.00 0.00 82 1013.0
20260830220516 71 0.0 1.0 0.00 0.00 0.00 83 1013.0
20260830220016 71 0.0 2.0 0.00 0.00 0.00 82 1012.9
20260830215516 71 225 1.0 4.0 0.00 0.00 0.00 82 1012.9
20260830215016 71 0.0 2.0 0.00 0.00 0.00 83 1012.8
20260830214516 71 0.0 2.0 0.00 0.00 0.00 83 1012.7
20260830214016 71 0.0 2.0 0.00 0.00 0.00 83 1012.8
20260830213516 71 0.0 1.0 0.00 0.00 0.00 83 1012.8
20260830213016 71 248 1.0 9.0 0.00 0.00 0.00 83 1012.9
20260830212517 71 225 1.0 4.0 0.00 0.00 0.00 82 1012.7
20260830212016 72 203 1.0 4.0 0.00 0.00 0.00 82 1012.8
20260830211516 72 135 1.0 3.0 0.00 0.00 0.00 82 1012.8
20260830211016 72 0.0 2.0 0.00 0.00 0.00 82 1012.9
20260830210516 72 180 1.0 5.0 0.00 0.00 0.00 82 1013.0
20260830210016 72 158 1.0 4.0 0.00 0.00 0.00 82 1012.8
20260830205516 72 113 1.0 4.0 0.00 0.00 0.00 81 1012.9
20260830205017 73 0.0 4.0 0.00 0.00 0.00 82 1013.0
20260830204516 73 0.0 2.0 0.00 0.00 0.00 82 1013.0
20260830204016 73 135 1.0 5.0 0.00 0.00 0.00 81 1013.0
20260830203516 73 135 1.0 2.0 0.00 0.00 0.00 81 1013.0
20260830203016 73 135 1.0 3.0 0.00 0.00 0.00 81 1013.0
20260830202516 73 135 1.0 3.0 0.00 0.00 0.00 80 1013.0
20260830202016 74 135 1.0 5.0 0.00 0.00 0.00 79 1013.1
20260830201516 74 113 2.0 5.0 0.00 0.00 0.00 78 1013.3
20260830201016 75 135 1.0 4.0 0.00 0.00 0.00 77 1013.3
20260830200516 75 135 2.0 9.0 0.00 0.00 0.00 77 1013.4
20260830200016 75 158 2.0 5.0 0.00 0.00 0.00 77 1013.4
20260830195517 74 113 1.0 3.0 0.00 0.00 0.00 77 1013.4
20260830195016 75 248 1.0 3.0 0.00 0.00 0.00 76 1013.5
20260830194516 75 135 1.0 7.0 0.00 0.00 0.00 75 1013.6
20260830194017 76 113 2.0 7.0 0.00 0.00 0.00 75 1013.6
20260830193516 76 135 1.0 3.0 0.00 0.00 0.00 73 1013.5
20260830193016 76 135 1.0 6.0 0.00 0.00 0.00 75 1013.5
20260830192516 76 135 1.0 2.0 0.00 0.00 0.00 75 1013.4
20260830192016 76 113 2.0 5.0 0.00 0.00 0.00 73 1013.5
20260830191517 76 135 2.0 8.0 0.00 0.00 0.00 73 1013.5
20260830191016 76 113 1.0 5.0 0.00 0.00 0.00 72 1013.6
20260830190517 77 113 1.0 3.0 0.00 0.00 0.00 69 1013.6
20260830190016 78 225 1.0 6.0 0.00 0.00 0.00 70 1013.6
20260830185516 78 113 1.0 4.0 0.00 0.00 0.00 70 1013.7
20260830185016 77 113 2.0 9.0 0.00 0.00 0.00 71 1013.7
20260830184516 77 113 2.0 6.0 0.00 0.00 0.00 69 1013.7
20260830184016 77 113 1.0 5.0 0.00 0.00 0.00 70 1013.7
20260830183516 77 225 1.0 4.0 0.00 0.00 0.00 71 1013.7
20260830183017 77 135 2.0 10.0 0.00 0.00 0.00 70 1013.9
20260830182516 77 113 1.0 5.0 0.00 0.00 0.00 70 1014.0
20260830182016 77 270 2.0 5.0 0.00 0.00 0.00 67 1014.0
20260830181516 76 225 3.0 11.0 0.00 0.00 0.00 68 1014.0
20260830181016 77 135 2.0 9.0 0.00 0.00 0.00 67 1014.1
20260830180516 76 113 1.0 4.0 0.00 0.00 0.00 70 1014.1
20260830180016 76 225 3.0 8.0 0.00 0.00 0.00 70 1014.3
20260830175517 76 225 3.0 8.0 0.00 0.00 0.00 69 1014.4
20260830175016 76 90 2.0 12.0 0.00 0.00 0.00 70 1014.4
20260830174516 76 203 2.0 7.0 0.00 0.00 0.00 69 1014.4
20260830174016 76 248 2.0 8.0 0.00 0.00 0.00 69 1014.4
20260830173516 76 225 3.0 13.0 0.00 0.00 0.00 69 1014.5
20260830173016 76 270 2.0 7.0 0.00 0.00 0.00 69 1014.5
20260830172516 76 203 2.0 6.0 0.00 0.00 0.00 68 1014.4
20260830172017 76 113 2.0 7.0 0.00 0.00 0.00 69 1014.4
20260830171517 76 135 2.0 9.0 0.00 0.00 0.00 68 1014.5
20260830171016 76 225 2.0 6.0 0.00 0.00 0.00 69 1014.6
20260830170516 76 113 2.0 4.0 0.00 0.00 0.00 70 1014.6
20260830170017 75 225 2.0 8.0 0.00 0.00 0.00 69 1014.6
20260830165516 75 248 1.0 5.0 0.00 0.00 0.00 69 1014.7
20260830165016 75 225 1.0 5.0 0.00 0.00 0.00 68 1014.9
20260830164517 75 225 2.0 8.0 0.00 0.00 0.00 68 1014.8
20260830164016 75 293 2.0 7.0 0.00 0.00 0.00 66 1014.9
20260830163517 75 225 2.0 6.0 0.00 0.00 0.00 65 1015.0
20260830163016 75 225 2.0 6.0 0.00 0.00 0.00 65 1015.1
20260830162516 75 45 2.0 5.0 0.00 0.00 0.00 65 1015.2
20260830162016 75 225 2.0 6.0 0.00 0.00 0.00 64 1015.2
20260830161516 75 225 2.0 8.0 0.00 0.00 0.00 65 1015.2
20260830161017 75 225 1.0 6.0 0.00 0.00 0.00 67 1015.4
20260830160516 75 203 3.0 7.0 0.00 0.00 0.00 63 1015.4
20260830160016 75 270 2.0 9.0 0.00 0.00 0.00 62 1015.5
20260830155516 75 225 2.0 5.0 0.00 0.00 0.00 62 1015.6
20260830155017 75 203 2.0 7.0 0.00 0.00 0.00 62 1015.8
20260830154516 75 225 3.0 9.0 0.00 0.00 0.00 62 1015.9
20260830154016 75 225 2.0 11.0 0.00 0.00 0.00 62 1016.0
20260830153516 74 90 1.0 7.0 0.00 0.00 0.00 63 1016.1
20260830153016 74 225 3.0 9.0 0.00 0.00 0.00 63 1016.1
20260830152516 74 293 2.0 7.0 0.00 0.00 0.00 62 1016.2
20260830152016 74 293 2.0 6.0 0.00 0.00 0.00 61 1016.3
20260830151516 74 315 2.0 10.0 0.00 0.00 0.00 61 1016.3
20260830151016 74 158 2.0 11.0 0.00 0.00 0.00 62 1016.5
20260830150516 73 203 2.0 9.0 0.00 0.00 0.00 62 1016.5
20260830150016 73 270 2.0 11.0 0.00 0.00 0.00 63 1016.6
20260830145516 73 248 3.0 13.0 0.00 0.00 0.00 62 1016.7
20260830145017 73 225 2.0 7.0 0.00 0.00 0.00 63 1016.7
20260830144517 73 315 2.0 8.0 0.00 0.00 0.00 65 1016.9
20260830144016 73 315 2.0 7.0 0.00 0.00 0.00 66 1016.9
20260830143516 73 180 2.0 7.0 0.00 0.00 0.00 68 1017.0
20260830143016 72 225 3.0 8.0 0.00 0.00 0.00 65 1017.1
20260830142516 72 248 2.0 8.0 0.00 0.00 0.00 65 1017.1
20260830142016 72 203 2.0 7.0 0.00 0.00 0.00 67 1017.2
20260830141516 72 225 3.0 10.0 0.00 0.00 0.00 66 1017.2
20260830141016 72 90 2.0 7.0 0.00 0.00 0.00 67 1017.3
20260830140516 71 203 2.0 6.0 0.00 0.00 0.00 67 1017.3
20260830140016 71 270 1.0 6.0 0.00 0.00 0.00 70 1017.4
20260830135516 71 180 1.0 6.0 0.00 0.00 0.00 71 1017.3
20260830135016 71 225 2.0 6.0 0.00 0.00 0.00 71 1017.3
20260830134517 70 225 1.0 5.0 0.00 0.00 0.00 72 1017.4
20260830134016 70 113 1.0 4.0 0.00 0.00 0.00 75 1017.3
20260830133516 69 135 2.0 6.0 0.00 0.00 0.00 74 1017.3
20260830133016 69 135 1.0 6.0 0.00 0.00 0.00 76 1017.4
20260830132516 68 0.0 2.0 0.00 0.00 0.00 83 1017.4
20260830132016 68 0.0 1.0 0.00 0.00 0.00 86 1017.5
20260830131516 67 0.0 1.0 0.00 0.00 0.00 88 1017.5
20260830131016 66 0.0 2.0 0.00 0.00 0.00 89 1017.6
20260830130516 65 0.0 2.0 0.00 0.00 0.00 91 1017.6
20260830130016 64 0.0 0.0 0.00 0.00 0.00 98 1017.6
20260830125516 63 0.0 0.0 0.00 0.00 0.00 100 1017.7
20260830125016 62 0.0 0.0 0.00 0.00 0.00 100 1017.7
20260830124517 62 0.0 0.0 0.00 0.00 0.00 100 1017.8
20260830124016 61 0.0 0.0 0.00 0.00 0.00 100 1017.9
20260830123516 60 0.0 0.0 0.00 0.00 0.00 100 1018.0
20260830123016 60 0.0 0.0 0.00 0.00 0.00 100 1018.1
20260830122516 60 0.0 0.0 0.00 0.00 0.00 100 1018.0
20260830122017 59 0.0 0.0 0.00 0.00 0.00 100 1018.1
20260830121516 59 0.0 0.0 0.00 0.00 0.00 100 1018.2
20260830121016 58 0.0 0.0 0.00 0.00 0.00 100 1018.2
20260830120516 58 0.0 0.0 0.00 0.00 0.00 100 1018.2
20260830120017 57 0.0 0.0 0.00 0.00 0.00 100 1018.3
20260830115516 57 0.0 0.0 0.00 0.00 0.00 100 1018.4
20260830115017 57 0.0 0.0 0.00 0.00 0.00 100 1018.5
20260830114516 56 0.0 0.0 0.00 0.00 0.00 100 1018.4
20260830114016 56 0.0 0.0 0.00 0.00 0.00 100 1018.5
20260830113516 56 0.0 0.0 0.00 0.00 0.00 100 1018.6
20260830113017 55 0.0 0.0 0.00 0.00 0.00 100 1018.6
20260830112516 55 0.0 0.0 0.00 0.00 0.00 100 1018.5
20260830112016 55 0.0 0.0 0.00 0.00 0.00 100 1018.5
20260830111516 54 0.0 0.0 0.00 0.00 0.00 100 1018.6
20260830111016 54 0.0 0.0 0.00 0.00 0.00 100 1018.6
20260830110516 54 0.0 0.0 0.00 0.00 0.00 100 1018.7
20260830110017 54 0.0 0.0 0.00 0.00 0.00 100 1018.8
20260830105517 53 0.0 0.0 0.00 0.00 0.00 100 1018.7
20260830105017 53 0.0 0.0 0.00 0.00 0.00 100 1018.7
20260830104516 53 0.0 0.0 0.00 0.00 0.00 100 1018.7
20260830104017 53 0.0 0.0 0.00 0.00 0.00 100 1018.7
20260830103516 53 0.0 0.0 0.00 0.00 0.00 100 1018.8
20260830103016 53 0.0 0.0 0.00 0.00 0.00 100 1018.8
20260830102516 52 0.0 0.0 0.00 0.00 0.00 100 1018.9
20260830102016 52 0.0 0.0 0.00 0.00 0.00 100 1018.9
20260830101516 52 0.0 0.0 0.00 0.00 0.00 100 1018.9
20260830101016 52 0.0 0.0 0.00 0.00 0.00 100 1018.9
20260830100516 52 0.0 0.0 0.00 0.00 0.00 100 1018.9
20260830100016 51 0.0 0.0 0.00 0.00 0.00 100 1018.9
20260830095516 51 0.0 0.0 0.00 0.00 0.00 100 1018.9
20260830095016 51 0.0 0.0 0.00 0.00 0.00 100 1018.9
20260830094516 51 0.0 0.0 0.00 0.00 0.00 100 1018.9
20260830094016 51 0.0 0.0 0.00 0.00 0.00 100 1018.9
20260830093516 52 0.0 0.0 0.00 0.00 0.00 100 1018.9
20260830093016 52 0.0 0.0 0.00 0.00 0.00 100 1018.9
20260830092516 52 0.0 0.0 0.00 0.00 0.00 100 1018.9
20260830092016 52 0.0 0.0 0.00 0.00 0.00 100 1018.9
20260830091517 52 0.0 0.0 0.00 0.00 0.00 100 1018.9
20260830091016 52 0.0 0.0 0.00 0.00 0.00 100 1018.9
20260830090516 52 0.0 0.0 0.00 0.00 0.00 100 1018.8
20260830090016 51 0.0 0.0 0.00 0.00 0.00 100 1018.8
20260830085516 51 0.0 0.0 0.00 0.00 0.00 100 1018.8
20260830085016 52 0.0 0.0 0.00 0.00 0.00 100 1018.8
20260830084516 52 0.0 0.0 0.00 0.00 0.00 100 1018.9
20260830084016 52 0.0 0.0 0.00 0.00 0.00 100 1018.8
20260830083516 52 0.0 0.0 0.00 0.00 0.00 100 1018.8
20260830083016 52 0.0 0.0 0.00 0.00 0.00 100 1018.8
20260830082516 52 0.0 0.0 0.00 0.00 0.00 100 1018.8
20260830082016 52 0.0 0.0 0.00 0.00 0.00 100 1018.9
20260830081516 52 0.0 0.0 0.00 0.00 0.00 100 1018.9
20260830081016 51 0.0 0.0 0.00 0.00 0.00 100 1018.8
20260830080516 51 0.0 0.0 0.00 0.00 0.00 100 1018.9